Home   Weather   Völklingen   Past weeks

Flag for Germany Past Weather in Völklingen, Saarland, Germany — Yesterday and Last 2 Weeks

45 °F


Feels Like: 45 °F
Forecast: 39 / 56 °F
Wind: 2 mph from North

Location: Saarbruecken / Ensheim

Current Time: Oct 27, 2016 at 3:04:19 PM

Latest Report: Oct 27, 2016 at 2:20 PM

Visibility: 0 mi

Pressure: 30.54 "Hg

Humidity: 100%

Dew Point: 45 °F

Location of VölklingenLocation

Past Weather in Völklingen — Graph


Völklingen Temperature Yesterday

Maximum temperature yesterday: 57 °F (at 3:20 PM)
Minimum temperature yesterday: 41 °F (at 11:20 PM)
Average temperature yesterday: 48 °F

High & Low Weather Summary for the Past Weeks

High64 °F (Oct 16, 2:20 PM)100% (Oct 14, 9:50 PM)30.57 "Hg (Oct 14, 9:50 PM)
Low36 °F (Oct 21, 10:50 PM)56% (Oct 16, 3:20 PM)29.65 "Hg (Oct 14, 4:50 PM)
Average48 °F89%30.03 "Hg
* Reported Oct 12 1:20 PM — Oct 27 1:50 PM, Völklingen, Weather by CustomWeather, © 2016

Note: Actual official high and low records may vary slightly from our data, if they occured in-between our weather recording intervals... More about our weather records


Völklingen Weather History for the Previous 24 Hours

Scroll right to see more
Time TempWeatherWind HumidityBarometerVisibility
1:50 PM
Thu, Oct 27
45 °FFog.2 mph100%30.57 "Hg0 mi
1:20 PM43 °FFog.2 mph100%30.57 "Hg0 mi
12:50 PM43 °FFog.2 mph100%30.57 "Hg0 mi
12:20 PM41 °FFog.2 mph100%30.57 "Hg0 mi
11:50 AM41 °FFog.3 mph100%30.57 "Hg0 mi
11:20 AM41 °FFog.2 mph100%30.57 "Hg0 mi
10:50 AM39 °FFog.2 mph100%30.54 "Hg0 mi
10:20 AM39 °FFog.1 mph100%30.54 "Hg0 mi
9:50 AM37 °FFog.1 mph100%30.54 "Hg0 mi
9:20 AM37 °FFog.1 mph100%30.54 "Hg0 mi
8:50 AM37 °FFog.2 mph100%30.51 "Hg0 mi
8:20 AM37 °FFog.1 mph100%30.51 "Hg0 mi
7:50 AM37 °FFog.2 mph100%30.51 "Hg0 mi
7:20 AM37 °FFog.2 mph100%30.48 "Hg0 mi
6:50 AM37 °FFog.No wind100%30.48 "Hg0 mi
6:20 AM37 °FFog.2 mph100%30.48 "Hg0 mi
5:50 AM37 °FFog.3 mph100%30.48 "Hg0 mi
5:20 AM37 °FChilly.1 mph100%30.48 "Hg0 mi
4:50 AM37 °FChilly.2 mph100%30.45 "Hg0 mi
4:20 AM37 °FChilly.1 mph100%30.45 "Hg0 mi
3:50 AM37 °FChilly.No wind100%30.45 "Hg0 mi
3:20 AM39 °FPassing clouds.1 mph100%30.45 "Hg0 mi
2:50 AM39 °FPassing clouds.No wind100%30.45 "Hg0 mi
2:20 AM39 °FPassing clouds.1 mph100%30.45 "Hg0 mi
1:50 AM39 °FPassing clouds.No wind100%30.45 "Hg0 mi
1:20 AM39 °FPassing clouds.No wind100%30.45 "Hg0 mi
12:50 AM41 °FClear.1 mph93%30.45 "Hg0 mi
12:20 AM41 °FPassing clouds.2 mph100%30.45 "Hg0 mi
11:50 PM
Wed, Oct 26
41 °FClear.1 mph100%30.45 "Hg0 mi
11:20 PM41 °FPassing clouds.1 mph93%30.45 "Hg0 mi
10:50 PM43 °FSleet. Overcast.No wind100%30.45 "Hg1 mi
10:20 PM43 °FFog.1 mph100%30.42 "Hg3 mi
9:50 PM43 °FFog.2 mph100%30.42 "Hg4 mi
9:20 PM43 °FFog.1 mph93%30.42 "Hg6 mi
8:50 PM45 °FFog.1 mph93%30.39 "HgN/A
8:20 PM45 °FClear.2 mph100%30.39 "Hg10 mi
7:50 PM46 °FPassing clouds.5 mph93%30.39 "HgN/A
7:20 PM46 °FPassing clouds.3 mph93%30.39 "HgN/A
6:50 PM48 °FPassing clouds.2 mph94%30.39 "HgN/A
6:20 PM50 °FPassing clouds.2 mph88%30.36 "HgN/A
5:50 PM54 °FPartly sunny.2 mph77%30.36 "HgN/A
5:20 PM54 °FScattered clouds.2 mph77%30.36 "HgN/A
4:50 PM54 °FScattered clouds.3 mph72%30.36 "HgN/A
4:20 PM55 °FScattered clouds.3 mph67%30.36 "HgN/A
3:50 PM55 °FScattered clouds.5 mph67%30.36 "HgN/A
3:20 PM57 °FScattered clouds.3 mph63%30.36 "HgN/A
Weather by CustomWeather, © 2016

See weather overviewHow to use our weather pages